TimeCST,TemperatureF,Dew PointF,Humidity,Sea Level PressureIn,VisibilityMPH,Wind Direction,Wind SpeedMPH,Gust SpeedMPH,PrecipitationIn,Events,Conditions,WindDirDegrees,DateUTC
12:30 AM,12.2,6.8,79,29.98,10.0,SE,4.6,-,N/A,,Overcast,140,2013-02-02 06:30:00
12:53 AM,12.0,7.0,80,30.05,10.0,SE,3.5,-,N/A,,Overcast,140,2013-02-02 06:53:00
1:33 AM,8.6,3.2,79,29.99,10.0,Calm,Calm,-,N/A,,Mostly Cloudy,0,2013-02-02 07:33:00
1:53 AM,12.0,7.0,80,30.06,10.0,Calm,Calm,-,N/A,,Overcast,0,2013-02-02 07:53:00
2:53 AM,12.0,7.0,80,30.08,10.0,NNW,5.8,-,N/A,,Overcast,330,2013-02-02 08:53:00
3:53 AM,14.0,8.1,77,30.09,10.0,NW,13.8,-,N/A,,Overcast,320,2013-02-02 09:53:00
4:53 AM,12.9,7.0,77,30.10,7.0,NNW,17.3,-,0.00,,Overcast,340,2013-02-02 10:53:00
5:53 AM,10.9,5.0,77,30.14,5.0,NNW,18.4,-,0.00,Snow,Light Snow,330,2013-02-02 11:53:00
6:18 AM,8.6,1.4,73,30.09,8.0,NNW,13.8,-,0.00,,Overcast,330,2013-02-02 12:18:00
6:27 AM,8.6,1.4,73,30.09,9.0,NNW,15.0,-,0.00,,Mostly Cloudy,330,2013-02-02 12:27:00
6:37 AM,6.8,1.4,79,30.10,8.0,NNW,12.7,-,0.00,,Scattered Clouds,330,2013-02-02 12:37:00
6:53 AM,5.0,-0.0,80,30.17,9.0,NW,9.2,-,0.00,,Scattered Clouds,320,2013-02-02 12:53:00
7:53 AM,3.9,-0.9,80,30.20,10.0,NW,12.7,-,N/A,,Mostly Cloudy,320,2013-02-02 13:53:00
8:53 AM,3.9,-2.0,76,30.21,10.0,NW,10.4,-,N/A,,Overcast,320,2013-02-02 14:53:00
9:14 AM,5.0,-2.2,72,30.14,10.0,NW,11.5,-,N/A,,Scattered Clouds,320,2013-02-02 15:14:00
9:53 AM,6.1,-0.9,73,30.21,10.0,NNW,11.5,-,N/A,,Partly Cloudy,330,2013-02-02 15:53:00
10:53 AM,8.1,1.0,73,30.22,10.0,NNW,9.2,-,N/A,,Clear,330,2013-02-02 16:53:00
12:53 PM,12.0,3.0,67,30.19,10.0,NW,8.1,-,N/A,,Partly Cloudy,310,2013-02-02 18:53:00
1:53 PM,12.9,3.0,65,30.17,10.0,NW,6.9,-,N/A,,Scattered Clouds,320,2013-02-02 19:53:00
2:53 PM,12.9,3.0,65,30.14,10.0,West,8.1,-,N/A,,Scattered Clouds,280,2013-02-02 20:53:00
3:53 PM,12.9,3.0,65,30.13,10.0,SW,4.6,-,N/A,,Clear,230,2013-02-02 21:53:00
4:53 PM,14.0,3.9,64,30.12,10.0,SW,8.1,-,N/A,,Overcast,220,2013-02-02 22:53:00
5:44 PM,14.0,6.8,73,30.03,2.0,South,3.5,-,0.00,Snow,Light Snow,190,2013-02-02 23:44:00
5:53 PM,15.1,8.1,74,30.09,4.0,SSW,4.6,-,0.00,Snow,Light Snow,200,2013-02-02 23:53:00
6:02 PM,15.8,8.6,73,30.03,2.5,South,5.8,-,0.00,Snow,Light Snow,190,2013-02-03 00:02:00
6:11 PM,14.0,8.6,79,30.02,1.2,South,5.8,-,0.00,Snow,Light Snow,190,2013-02-03 00:11:00
6:24 PM,14.0,10.4,86,30.02,3.0,South,6.9,-,0.00,Snow,Light Snow,180,2013-02-03 00:24:00
6:31 PM,14.0,10.4,86,30.01,6.0,South,5.8,-,0.00,Snow,Light Snow,170,2013-02-03 00:31:00
6:40 PM,14.0,8.6,79,30.01,7.0,South,8.1,-,0.00,,Overcast,180,2013-02-03 00:40:00
6:50 PM,14.0,10.4,86,30.01,4.0,South,6.9,-,N/A,Snow,Light Snow,170,2013-02-03 00:50:00
6:53 PM,14.0,10.0,84,30.07,5.0,South,8.1,-,0.00,Snow,Light Snow,170,2013-02-03 00:53:00
7:31 PM,15.8,10.4,79,29.99,2.0,South,8.1,-,0.01,Snow,Light Snow,170,2013-02-03 01:31:00
7:36 PM,15.8,10.4,79,29.99,3.0,South,8.1,-,0.01,Snow,Light Snow,170,2013-02-03 01:36:00
7:53 PM,15.8,10.4,79,29.99,4.0,South,10.4,-,N/A,,Overcast,180,2013-02-03 01:53:00
8:45 PM,15.8,12.2,86,29.96,7.0,South,10.4,-,N/A,,Overcast,180,2013-02-03 02:45:00
8:53 PM,15.1,12.0,88,30.02,6.0,South,10.4,-,0.00,Snow,Light Snow,170,2013-02-03 02:53:00
9:53 PM,17.1,12.9,84,30.00,5.0,SSW,8.1,-,0.00,Snow,Light Snow,200,2013-02-03 03:53:00
10:12 PM,17.6,12.2,79,29.94,10.0,South,8.1,-,0.00,,Overcast,190,2013-02-03 04:12:00
10:38 PM,19.4,15.8,86,29.93,9.0,SSW,8.1,-,0.00,,Overcast,210,2013-02-03 04:38:00
10:53 PM,19.0,15.1,85,29.98,8.0,SW,3.5,-,0.00,,Overcast,230,2013-02-03 04:53:00
11:53 PM,23.0,18.0,81,29.99,4.0,NW,23.0,31.1,N/A,,Haze,320,2013-02-03 05:53:00